Hourly Weather Russkiy Brod

Today, 11 April, Sunday

Time Temperature Precipitation Wind Pressure Humidity
00:00 +6°C° 0 mm 1 mps 756 mmHg 58%
01:00 +5°C° 0 mm 1 mps 756 mmHg 60%
02:00 +5°C° 0 mm 1 mps 757 mmHg 62%
03:00 +4°C° 0 mm 1 mps 757 mmHg 63%
04:00 +4°C° 0 mm 1 mps 757 mmHg 64%
05:00 +4°C° 0 mm 1 mps 757 mmHg 65%
06:00 +5°C° 0 mm 1 mps 758 mmHg 61%
07:00 +6°C° 0 mm 2 mps 758 mmHg 57%
08:00 +7°C° 0 mm 2 mps 758 mmHg 52%
09:00 +8°C° 0 mm 2 mps 758 mmHg 48%
10:00 +10°C° 0 mm 2 mps 758 mmHg 44%
11:00 +12°C° 0 mm 2 mps 758 mmHg 39%
12:00 +12°C° 0 mm 3 mps 758 mmHg 38%
13:00 +12°C° 0 mm 3 mps 758 mmHg 37%
14:00 +13°C° 0 mm 4 mps 758 mmHg 36%
15:00 +13°C° 0 mm 4 mps 758 mmHg 38%
16:00 +12°C° 0 mm 4 mps 758 mmHg 41%
17:00 +12°C° 0 mm 4 mps 758 mmHg 43%
18:00 +11°C° 0 mm 3 mps 758 mmHg 49%
19:00 +9°C° 0 mm 3 mps 758 mmHg 55%
20:00 +8°C° 0 mm 3 mps 758 mmHg 60%
21:00 +7°C° 0 mm 3 mps 758 mmHg 62%
22:00 +6°C° 0 mm 4 mps 758 mmHg 64%
23:00 +5°C° 0 mm 4 mps 758 mmHg 65%

Tomorrow, 12 April, Monday

Time Temperature Precipitation Wind Pressure Humidity
00:00 +5°C° 0 mm 4 mps 758 mmHg 66%
01:00 +5°C° 0 mm 4 mps 758 mmHg 67%
02:00 +5°C° 0 mm 4 mps 758 mmHg 67%
03:00 +4°C° 0 mm 4 mps 757 mmHg 70%
04:00 +4°C° 0 mm 4 mps 757 mmHg 72%
05:00 +4°C° 0 mm 4 mps 757 mmHg 74%
06:00 +5°C° 0 mm 4 mps 757 mmHg 76%
07:00 +6°C° 0 mm 5 mps 757 mmHg 77%
08:00 +6°C° 0 mm 5 mps 757 mmHg 79%
09:00 +8°C° 0 mm 5 mps 756 mmHg 76%
10:00 +10°C° 0 mm 5 mps 756 mmHg 73%
11:00 +12°C° 0 mm 5 mps 756 mmHg 70%
12:00 +13°C° 0 mm 5 mps 756 mmHg 68%
13:00 +15°C° 0 mm 5 mps 755 mmHg 65%
14:00 +16°C° 0 mm 5 mps 755 mmHg 62%
15:00 +16°C° 0 mm 5 mps 755 mmHg 64%
16:00 +17°C° 0 mm 4 mps 754 mmHg 65%
17:00 +17°C° 0 mm 3 mps 754 mmHg 66%
18:00 +16°C° 0 mm 3 mps 754 mmHg 70%
19:00 +14°C° 0 mm 4 mps 754 mmHg 73%
20:00 +12°C° 0 mm 4 mps 754 mmHg 77%
21:00 +12°C° 0 mm 4 mps 754 mmHg 76%
22:00 +12°C° 0 mm 4 mps 754 mmHg 76%
23:00 +11°C° 0 mm 4 mps 754 mmHg 75%

Day after tomorrow, 13 April, Tuesday

Time Temperature Precipitation Wind Pressure Humidity
00:00 +11°C° 0 mm 3 mps 754 mmHg 77%
01:00 +10°C° 0 mm 3 mps 754 mmHg 78%
02:00 +10°C° 0 mm 3 mps 754 mmHg 80%
03:00 +10°C° 0 mm 3 mps 754 mmHg 80%
04:00 +9°C° 0 mm 3 mps 754 mmHg 81%
05:00 +9°C° 0 mm 3 mps 754 mmHg 82%
06:00 +10°C° 0 mm 3 mps 754 mmHg 75%
07:00 +12°C° 0 mm 4 mps 754 mmHg 69%
08:00 +13°C° 0 mm 4 mps 754 mmHg 63%
09:00 +15°C° 0 mm 5 mps 754 mmHg 58%
10:00 +16°C° 0 mm 5 mps 754 mmHg 53%
11:00 +19°C° 0 mm 5 mps 754 mmHg 48%
12:00 +19°C° 0 mm 5 mps 753 mmHg 46%
13:00 +20°C° 0 mm 6 mps 753 mmHg 44%
14:00 +21°C° 0 mm 6 mps 753 mmHg 43%
15:00 +20°C° 0 mm 5 mps 753 mmHg 44%
16:00 +19°C° 0 mm 5 mps 753 mmHg 45%
17:00 +19°C° 0 mm 4 mps 752 mmHg 46%
18:00 +17°C° 0 mm 4 mps 752 mmHg 50%
19:00 +16°C° 0 mm 3 mps 752 mmHg 53%
20:00 +14°C° 0 mm 3 mps 753 mmHg 57%
21:00 +13°C° 0 mm 3 mps 752 mmHg 60%
22:00 +12°C° 0 mm 3 mps 752 mmHg 63%
23:00 +12°C° 0 mm 3 mps 752 mmHg 66%

14 April, Wednesday

Time Temperature Precipitation Wind Pressure Humidity
00:00 +11°C° 0 mm 3 mps 752 mmHg 69%
01:00 +12°C° 0 mm 2 mps 752 mmHg 72%
02:00 +11°C° 0 mm 1 mps 752 mmHg 75%
03:00 +10°C° 0 mm 2 mps 752 mmHg 76%
04:00 +10°C° 0 mm 2 mps 752 mmHg 78%
05:00 +10°C° 0 mm 3 mps 752 mmHg 79%
06:00 +11°C° 0 mm 3 mps 752 mmHg 71%
07:00 +12°C° 0 mm 4 mps 752 mmHg 64%
08:00 +13°C° 0 mm 4 mps 752 mmHg 56%
09:00 +15°C° 0 mm 5 mps 751 mmHg 50%
10:00 +16°C° 0 mm 5 mps 751 mmHg 44%
11:00 +17°C° 0 mm 6 mps 751 mmHg 38%
12:00 +19°C° 0 mm 6 mps 751 mmHg 35%
13:00 +19°C° 0 mm 6 mps 750 mmHg 33%
14:00 +20°C° 0 mm 6 mps 750 mmHg 31%
15:00 +20°C° 0 mm 5 mps 750 mmHg 33%
16:00 +19°C° 0 mm 4 mps 750 mmHg 36%
17:00 +19°C° 0 mm 3 mps 749 mmHg 38%
18:00 +17°C° 0 mm 3 mps 749 mmHg 41%
19:00 +16°C° 0 mm 3 mps 750 mmHg 43%
20:00 +14°C° 0 mm 3 mps 750 mmHg 45%
21:00 +14°C° 0 mm 2 mps 749 mmHg 48%
22:00 +14°C° 0 mm 2 mps 749 mmHg 50%
23:00 +13°C° 0 mm 2 mps 749 mmHg 53%

15 April, Thursday

Time Temperature Precipitation Wind Pressure Humidity
00:00 +13°C° 0 mm 2 mps 749 mmHg 54%
01:00 +12°C° 0 mm 2 mps 749 mmHg 54%
02:00 +12°C° 0 mm 2 mps 749 mmHg 55%
03:00 +12°C° 0 mm 2 mps 748 mmHg 57%
04:00 +10°C° 0 mm 2 mps 748 mmHg 59%
05:00 +10°C° 0 mm 3 mps 748 mmHg 60%
06:00 +11°C° 0 mm 3 mps 748 mmHg 59%
07:00 +12°C° 0 mm 3 mps 748 mmHg 57%
08:00 +13°C° 0 mm 3 mps 747 mmHg 55%
09:00 +14°C° 0 mm 4 mps 747 mmHg 51%
10:00 +17°C° 0 mm 4 mps 747 mmHg 46%
11:00 +18°C° 0 mm 4 mps 746 mmHg 42%
12:00 +19°C° 0 mm 5 mps 746 mmHg 41%
13:00 +19°C° 0 mm 5 mps 745 mmHg 40%
14:00 +19°C° 0 mm 5 mps 745 mmHg 39%
15:00 +17°C° 0.1 mm 5 mps 745 mmHg 45%
16:00 +16°C° 0.1 mm 5 mps 745 mmHg 51%
17:00 +15°C° 0.1 mm 6 mps 744 mmHg 57%
18:00 +13°C° 0.6 mm 5 mps 744 mmHg 65%
19:00 +12°C° 0.6 mm 4 mps 745 mmHg 72%
20:00 +11°C° 0.6 mm 3 mps 745 mmHg 80%
21:00 +11°C° 0.1 mm 3 mps 745 mmHg 81%
22:00 +10°C° 0.1 mm 4 mps 744 mmHg 83%
23:00 +10°C° 0.1 mm 4 mps 744 mmHg 84%

16 April, Friday

Time Temperature Precipitation Wind Pressure Humidity
00:00 +10°C° 0 mm 4 mps 744 mmHg 85%
01:00 +10°C° 0 mm 3 mps 744 mmHg 85%
02:00 +9°C° 0 mm 3 mps 744 mmHg 86%
03:00 +9°C° 0 mm 3 mps 744 mmHg 87%
04:00 +8°C° 0 mm 4 mps 744 mmHg 87%
05:00 +8°C° 0 mm 4 mps 744 mmHg 88%
06:00 +8°C° 0.1 mm 5 mps 745 mmHg 87%
07:00 +8°C° 0.1 mm 6 mps 745 mmHg 87%
08:00 +6°C° 0.1 mm 7 mps 746 mmHg 86%
09:00 +6°C° 0.2 mm 7 mps 746 mmHg 85%
10:00 +6°C° 0.2 mm 8 mps 746 mmHg 84%
11:00 +5°C° 0.2 mm 8 mps 747 mmHg 83%
12:00 +5°C° 0.3 mm 8 mps 747 mmHg 79%
13:00 +5°C° 0.3 mm 9 mps 747 mmHg 76%
14:00 +5°C° 0.3 mm 9 mps 748 mmHg 73%
15:00 +5°C° 0.2 mm 9 mps 748 mmHg 66%
16:00 +6°C° 0.2 mm 9 mps 749 mmHg 59%
17:00 +6°C° 0.2 mm 9 mps 749 mmHg 52%
18:00 +5°C° 0 mm 9 mps 750 mmHg 52%
19:00 +3°C° 0 mm 9 mps 750 mmHg 52%
20:00 +3°C° 0 mm 9 mps 751 mmHg 52%
21:00 +2°C° 0 mm 9 mps 752 mmHg 51%
22:00 +1°C° 0 mm 9 mps 752 mmHg 51%
23:00 0°C° 0 mm 9 mps 753 mmHg 50%
Show more